EW9605 Weather Reports


Display with metric or nautical units.
time (UTC)temp
F
wind
direction
speed
MPH
gust
MPH
rain 1hr
in
rain 24hr
in
rain mn
in
humidity
%
barometer
mb
20260505011128 76 130 1.0 6.0 0.00 0.00 0.00 71 1013.0
20260505010647 76 109 0.0 3.0 0.00 0.00 0.00 70 1013.0
20260505010126 76 0.0 0.0 0.00 0.00 0.00 70 1013.0
20260505005624 76 0.0 0.0 0.00 0.00 0.00 69 1012.8
20260505005123 77 0.0 0.0 0.00 0.00 0.00 69 1012.7
20260505004621 77 142 0.0 3.0 0.00 0.00 0.00 69 1012.9
20260505004140 77 116 2.0 3.0 0.00 0.00 0.00 69 1012.8
20260505003619 77 0.0 0.0 0.00 0.00 0.00 68 1012.7
20260505003118 77 109 2.0 6.0 0.00 0.00 0.00 69 1012.6
20260505002616 78 119 0.0 4.0 0.00 0.00 0.00 68 1012.7
20260505002135 78 96 1.0 6.0 0.00 0.00 0.00 67 1012.7
20260505001634 78 115 1.0 7.0 0.00 0.00 0.00 67 1012.6
20260505001132 78 0.0 0.0 0.00 0.00 0.00 67 1012.5
20260505000631 78 0.0 0.0 0.00 0.00 0.00 66 1012.1
20260505000150 78 0.0 0.0 0.00 0.00 0.00 66 1012.0
20260504235629 79 123 1.0 4.0 0.00 0.00 0.00 65 1011.9
20260504235127 79 114 0.0 4.0 0.00 0.00 0.00 65 1012.0
20260504234626 79 0.0 0.0 0.00 0.00 0.00 65 1012.0
20260504234125 79 0.0 0.0 0.00 0.00 0.00 65 1012.0
20260504233643 79 103 4.0 9.0 0.00 0.00 0.00 64 1011.9
20260504233142 80 112 5.0 9.0 0.00 0.00 0.00 63 1011.6
20260504232621 80 0.0 0.0 0.00 0.00 0.00 62 1011.6
20260504232139 81 76 4.0 8.0 0.00 0.00 0.00 59 1011.6
20260504231618 82 106 4.0 8.0 0.00 0.00 0.00 58 1011.6
20260504231116 82 107 6.0 9.0 0.00 0.00 0.00 59 1011.6
20260504230615 81 0.0 0.0 0.00 0.00 0.00 60 1011.6
20260504230134 81 0.0 0.0 0.00 0.00 0.00 60 1011.5
20260504225633 81 99 5.0 8.0 0.00 0.00 0.00 60 1011.4
20260504225131 81 99 2.0 3.0 0.00 0.00 0.00 59 1011.4
20260504224630 82 85 1.0 3.0 0.00 0.00 0.00 57 1011.5
20260504224128 82 93 4.0 8.0 0.00 0.00 0.00 57 1011.5
20260504223627 82 101 3.0 4.0 0.00 0.00 0.00 56 1011.5
20260504223126 83 101 4.0 6.0 0.00 0.00 0.00 55 1011.7
20260504222625 84 116 6.0 9.0 0.00 0.00 0.00 54 1011.6
20260504222123 84 110 4.0 7.0 0.00 0.00 0.00 53 1011.7
20260504221622 85 91 2.0 6.0 0.00 0.00 0.00 50 1011.7
20260504221120 85 0.0 0.0 0.00 0.00 0.00 51 1011.8
20260504220619 85 78 0.0 2.0 0.00 0.00 0.00 51 1011.7
20260504220117 85 117 2.0 4.0 0.00 0.00 0.00 52 1011.7
20260504215637 84 0.0 0.0 0.00 0.00 0.00 53 1011.7
20260504215135 84 109 1.0 7.0 0.00 0.00 0.00 53 1011.5
20260504214634 83 0.0 0.0 0.00 0.00 0.00 55 1011.4
20260504214132 83 96 4.0 7.0 0.00 0.00 0.00 55 1011.7
20260504213631 84 115 2.0 4.0 0.00 0.00 0.00 53 1011.7
20260504213130 84 126 2.0 6.0 0.00 0.00 0.00 55 1011.6
20260504212648 84 120 4.0 6.0 0.00 0.00 0.00 54 1011.6
20260504212127 84 0.0 0.0 0.00 0.00 0.00 54 1011.6
20260504211625 83 93 3.0 7.0 0.00 0.00 0.00 53 1011.6
20260504211124 82 96 2.0 3.0 0.00 0.00 0.00 55 1011.8
20260504210623 82 121 2.0 4.0 0.00 0.00 0.00 56 1011.6
20260504210121 82 112 3.0 6.0 0.00 0.00 0.00 55 1011.8
20260504205620 83 92 6.0 8.0 0.00 0.00 0.00 58 1011.7
20260504205119 83 97 6.0 9.0 0.00 0.00 0.00 57 1011.6
20260504204617 83 0.0 0.0 0.00 0.00 0.00 54 1011.8
20260504204116 83 94 1.0 2.0 0.00 0.00 0.00 54 1011.8
20260504203635 83 0.0 0.0 0.00 0.00 0.00 56 1011.9
20260504203154 83 99 4.0 7.0 0.00 0.00 0.00 54 1012.0
20260504202652 83 104 4.0 6.0 0.00 0.00 0.00 54 1011.9
20260504202131 84 113 3.0 4.0 0.00 0.00 0.00 53 1012.1
20260504201650 83 170 0.0 2.0 0.00 0.00 0.00 52 1012.0
20260504201128 83 88 5.0 9.0 0.00 0.00 0.00 53 1012.1
20260504200647 83 87 2.0 7.0 0.00 0.00 0.00 54 1012.2
20260504200126 82 102 5.0 8.0 0.00 0.00 0.00 55 1012.2
20260504195624 82 99 3.0 6.0 0.00 0.00 0.00 54 1012.4
20260504195123 83 78 5.0 8.0 0.00 0.00 0.00 54 1012.3
20260504194621 83 115 1.0 4.0 0.00 0.00 0.00 52 1012.5
20260504194120 82 115 2.0 7.0 0.00 0.00 0.00 54 1012.4
20260504193619 82 0.0 0.0 0.00 0.00 0.00 55 1012.5
20260504193117 82 103 6.0 9.0 0.00 0.00 0.00 54 1012.6
20260504192636 82 72 1.0 6.0 0.00 0.00 0.00 56 1012.4
20260504192135 82 83 1.0 6.0 0.00 0.00 0.00 52 1012.6
20260504191633 82 87 7.0 10.0 0.00 0.00 0.00 55 1012.6
20260504191132 82 68 6.0 9.0 0.00 0.00 0.00 54 1012.6
20260504190631 82 43 5.0 8.0 0.00 0.00 0.00 56 1013.0
20260504190129 82 66 7.0 11.0 0.00 0.00 0.00 54 1013.0
20260504185628 82 122 4.0 7.0 0.00 0.00 0.00 56 1013.1
20260504185207 82 80 4.0 6.0 0.00 0.00 0.00 57 1013.1
20260504184625 83 55 7.0 9.0 0.00 0.00 0.00 57 1013.4
20260504184123 83 46 4.0 9.0 0.00 0.00 0.00 57 1013.2
20260504183622 82 0.0 0.0 0.00 0.00 0.00 57 1013.5
20260504183121 81 127 1.0 2.0 0.00 0.00 0.00 57 1013.3
20260504182619 81 106 4.0 7.0 0.00 0.00 0.00 55 1013.6
20260504182118 81 76 3.0 6.0 0.00 0.00 0.00 56 1013.7
20260504181617 82 108 1.0 4.0 0.00 0.00 0.00 54 1013.7
20260504181115 82 115 2.0 3.0 0.00 0.00 0.00 55 1014.0
20260504180635 82 89 5.0 8.0 0.00 0.00 0.00 57 1014.0
20260504180133 81 0.0 0.0 0.00 0.00 0.00 58 1013.8
20260504175712 81 95 3.0 6.0 0.00 0.00 0.00 57 1013.9
20260504175131 81 100 5.0 8.0 0.00 0.00 0.00 57 1014.0
20260504174629 80 74 6.0 9.0 0.00 0.00 0.00 56 1014.0
20260504174128 81 83 7.0 10.0 0.00 0.00 0.00 56 1014.2
20260504173626 81 88 6.0 10.0 0.00 0.00 0.00 56 1014.2
20260504173125 81 72 2.0 4.0 0.00 0.00 0.00 55 1014.2
20260504172624 81 79 5.0 11.0 0.00 0.00 0.00 57 1014.4
20260504172123 80 85 5.0 9.0 0.00 0.00 0.00 57 1014.3
20260504171641 80 81 8.0 16.0 0.00 0.00 0.00 56 1014.5
20260504171139 81 84 7.0 14.0 0.00 0.00 0.00 56 1014.3
20260504170618 81 65 9.0 13.0 0.00 0.00 0.00 58 1014.6
20260504170116 81 86 5.0 8.0 0.00 0.00 0.00 56 1014.3
20260504160119 79 111 7.0 13.0 0.00 0.00 0.00 60 1015.2
20260504151125 77 82 7.0 9.0 0.00 0.00 0.00 63 1015.2
20260504150624 77 93 8.0 13.0 0.00 0.00 0.00 65 1015.3
20260504150123 77 95 7.0 9.0 0.00 0.00 0.00 63 1015.4
20260504141130 75 89 6.0 10.0 0.00 0.00 0.00 72 1015.1
20260504140628 75 76 6.0 10.0 0.00 0.00 0.00 71 1015.1
20260504140130 74 76 5.0 8.0 0.00 0.00 0.00 72 1015.0
20260504130632 72 111 2.0 8.0 0.00 0.00 0.00 77 1014.7
20260504130131 72 100 6.0 8.0 0.00 0.00 0.00 78 1014.7
20260504120115 68 62 5.0 10.0 0.00 0.00 0.00 83 1014.7
20260504110618 66 80 1.0 9.0 0.00 0.00 0.00 87 1014.2
20260504110116 66 59 2.0 6.0 0.00 0.00 0.00 87 1014.0
20260504100120 67 34 3.0 8.0 0.00 0.00 0.00 86 1013.4
20260504090125 67 57 0.0 3.0 0.00 0.00 0.00 85 1013.4
20260504081633 67 81 1.0 4.0 0.00 0.00 0.00 86 1013.4
20260504081131 67 95 0.0 2.0 0.00 0.00 0.00 86 1013.3
20260504080630 68 60 4.0 8.0 0.00 0.00 0.00 86 1013.4
20260504080129 68 100 1.0 7.0 0.00 0.00 0.00 86 1013.4
20260504070133 68 0.0 0.0 0.00 0.11 0.00 85 1014.4
20260504060118 68 0.0 0.0 0.00 0.61 0.00 85 1014.2
20260504050724 69 61 0.0 2.0 0.00 0.67 0.00 85 1014.9
20260504050122 69 0.0 0.0 0.00 0.67 0.00 85 1014.5
20260504045641 69 71 0.0 6.0 0.00 0.67 0.00 85 1014.5
20260504045119 69 0.0 0.0 0.00 0.67 0.00 85 1014.7
20260504044618 69 0.0 0.0 0.00 0.67 0.00 85 1014.8
20260504044157 69 0.0 0.0 0.00 0.67 0.00 85 1015.1
20260504043635 69 0.0 0.0 0.00 0.67 0.00 84 1015.0
20260504043134 70 0.0 0.0 0.00 0.67 0.00 84 1015.2
20260504042633 70 85 1.0 3.0 0.00 0.67 0.00 84 1015.1
20260504042131 70 0.0 0.0 0.00 0.67 0.00 83 1015.3
20260504041630 70 52 0.0 3.0 0.00 0.67 0.00 84 1015.3
20260504041128 70 0.0 0.0 0.00 0.67 0.00 84 1015.3
20260504040627 70 82 0.0 2.0 0.00 0.67 0.00 83 1015.3
20260504040126 70 0.0 0.0 0.00 0.67 0.00 83 1015.2
20260504035625 70 0.0 0.0 0.00 0.67 0.67 82 1015.4
20260504035123 70 0.0 0.0 0.00 0.67 0.67 83 1015.5
20260504034622 71 0.0 0.0 0.00 0.67 0.67 83 1015.5
20260504034120 71 0.0 0.0 0.00 0.67 0.67 84 1015.6
20260504033619 71 0.0 0.0 0.00 0.67 0.67 84 1015.4
20260504033118 71 0.0 0.0 0.00 0.67 0.67 85 1015.4
20260504032616 71 0.0 0.0 0.00 0.67 0.67 84 1015.4
20260504032157 71 83 1.0 3.0 0.00 0.67 0.67 84 1015.4
20260504031634 71 0.0 0.0 0.00 0.67 0.67 84 1015.2
20260504031153 71 0.0 0.0 0.00 0.67 0.67 84 1015.3
20260504030631 71 0.0 0.0 0.00 0.67 0.67 83 1015.3
20260504030130 72 0.0 0.0 0.00 0.67 0.67 83 1015.4
20260504025649 72 81 2.0 3.0 0.00 0.67 0.67 83 1015.4
20260504025148 72 0.0 0.0 0.00 0.67 0.67 84 1015.5
20260504024626 71 0.0 0.0 0.00 0.67 0.67 83 1015.4
20260504024125 71 0.0 0.0 0.00 0.67 0.67 84 1015.4
20260504023624 71 0.0 0.0 0.00 0.67 0.67 84 1015.2
20260504023122 71 0.0 0.0 0.00 0.67 0.67 84 1015.1
20260504022621 71 0.0 0.0 0.00 0.67 0.67 84 1015.0
20260504022120 71 0.0 0.0 0.00 0.67 0.67 84 1015.0
20260504021618 71 0.0 0.0 0.00 0.67 0.67 82 1015.0
20260504021137 71 0.0 0.0 0.00 0.67 0.67 82 1014.9
20260504020616 72 0.0 0.0 0.00 0.67 0.67 82 1015.0
20260504020134 72 0.0 0.0 0.00 0.67 0.67 82 1014.8
20260504015633 72 0.0 0.0 0.00 0.67 0.67 82 1014.7
20260504015132 72 0.0 0.0 0.00 0.67 0.67 81 1014.8
20260504014631 72 0.0 0.0 0.00 0.67 0.67 81 1014.7
20260504014129 72 0.0 0.0 0.00 0.67 0.67 81 1014.8
20260504013628 72 0.0 0.0 0.00 0.67 0.67 80 1014.8
20260504013126 72 0.0 0.0 0.00 0.67 0.67 80 1014.7
20260504012625 72 0.0 0.0 0.00 0.67 0.67 80 1014.6
20260504012123 73 0.0 0.0 0.00 0.67 0.67 80 1014.5
20260504011702 73 0.0 0.0 0.00 0.67 0.67 79 1014.6